Location: Warszawa
(52.2500°N, 21.0000°E)
Time: 08:36:31
(UTC+02:00)

Vanguard 2 - Visible Passes

Search period start: 03 October 2023 00:00
Search period end: 13 October 2023 00:00
Orbit: 552 x 2924 km, 32.9° (Epoch: 01 October)

Date Brightness Start Highest point End Pass type
(mag) Time Alt. Az. Time Alt. Az. Time Alt. Az.
03 Oct 10.4 20:07:44 10° WSW 20:20:17 31° S 20:26:14 20° SSE visible
03 Oct 10.7 22:20:15 10° WSW 22:27:28 19° SW 22:27:28 19° SW visible
04 Oct 10.4 20:23:08 10° WSW 20:35:32 30° SSW 20:40:58 21° SSE visible
04 Oct 10.9 22:36:32 10° WSW 22:42:12 16° SW 22:42:12 16° SW visible
05 Oct 10.9 18:27:28 10° SW 18:41:50 34° S 18:52:57 10° ESE visible
05 Oct 10.5 20:38:39 10° WSW 20:50:43 28° SSW 20:55:43 21° SSE visible
05 Oct 11.1 22:53:30 10° WSW 22:56:56 12° SW 22:56:56 12° SW visible
06 Oct 10.9 18:42:37 10° WSW 18:57:07 35° S 19:08:19 10° SE visible
06 Oct 10.6 20:54:19 10° WSW 21:05:49 26° SSW 21:10:28 21° S visible
07 Oct 10.9 18:57:54 10° WSW 19:12:23 35° S 19:23:36 10° SE visible
07 Oct 10.7 21:10:10 10° WSW 21:20:51 23° SSW 21:25:13 19° S visible
08 Oct 10.9 19:13:18 10° WSW 19:27:36 34° SSW 19:38:45 10° SE visible
08 Oct 10.9 21:26:16 10° WSW 21:35:48 20° SW 21:40:01 17° SSW visible
09 Oct 11.0 19:28:49 10° WSW 19:42:46 32° SSW 19:53:37 10° SE visible
09 Oct 11.0 21:42:48 10° WSW 21:50:38 16° SW 21:54:51 14° SSW visible
10 Oct 11.0 19:44:28 10° WSW 19:57:52 29° SSW 20:08:29 10° SSE visible
10 Oct 11.2 22:00:15 10° WSW 22:05:24 13° SW 22:09:43 10° SSW visible
11 Oct 11.1 20:00:17 10° WSW 20:12:54 26° SSW 20:23:12 10° SSE visible
12 Oct 11.3 18:04:04 10° WSW 18:19:00 36° SSW 18:32:08 10° SE visible
12 Oct 11.2 20:16:19 10° WSW 20:27:50 23° SW 20:37:30 10° S visible
